Location: Fishcreek Rd Observing Site
(41.1865°N, 81.4271°W)
Time: 13:04:04
(UTC-04:00)

Iridium 75 - Visible Passes

Search period start: 30 August 2016 00:00
Search period end: 09 September 2016 00:00
Orbit: 776 x 779 km, 86.4° (Epoch: 30 August)

Date Brightness Start Highest point End Pass type
(mag) Time Alt. Az. Time Alt. Az. Time Alt. Az.
30 Aug 8.7 00:58:04 12° NE 00:58:04 12° NE 00:58:31 10° NE visible
30 Aug 8.2 02:38:33 20° NNW 02:38:33 20° NNW 02:40:13 10° N visible
31 Aug 8.3 02:05:13 20° N 02:05:13 20° N 02:06:50 10° N visible
01 Sep 8.5 01:31:53 17° NNE 01:31:53 17° NNE 01:33:10 10° NNE visible
01 Sep 8.6 03:12:22 11° NW 03:12:22 11° NW 03:12:45 10° NNW visible
02 Sep 8.7 00:58:33 13° NNE 00:58:33 13° NNE 00:59:09 10° NNE visible
02 Sep 8.5 02:39:02 15° NNW 02:39:02 15° NNW 02:40:03 10° NNW visible
03 Sep 8.5 02:05:41 17° N 02:05:41 17° N 02:06:52 10° N visible
04 Sep 8.6 01:32:21 16° N 01:32:21 16° N 01:33:22 10° N visible
05 Sep 8.8 00:59:00 13° NNE 00:59:00 13° NNE 00:59:35 10° NNE visible
05 Sep 8.8 02:39:28 11° NNW 02:39:28 11° NNW 02:39:44 10° NNW visible
06 Sep 8.7 02:06:07 14° NNW 02:06:07 14° NNW 02:06:47 10° NNW visible
07 Sep 8.8 01:32:45 14° N 01:32:45 14° N 01:33:28 10° N visible
08 Sep 8.8 00:59:23 13° NNE 00:59:23 13° NNE 00:59:52 10° N visible
